This demonstration page uses our WeatherBlox Daily Observations layout. Learn more.

Left ArrowRight Arrow

Hourly Observations for October 14, 2015

Temp ( °F °C ) Dew Point ( °F °C ) Humidity (%) Winds ( mph kmh ) Pressure ( in mb ) Visibility ( mi km ) Precip ( " mm )
12:51 am 00:51 Clear 63 17.2 47 8.3 56 56 E 6 9 29.95 1014 10 16 N/A
1:51 am 01:51 Clear 60 15.6 46 7.8 60 60 N N/A 29.95 1014 10 16 N/A
2:51 am 02:51 Clear 62 16.7 47 8.3 58 58 ESE 3 6 29.95 1014 10 16 N/A
3:51 am 03:51 Clear 61 16.1 46 7.8 58 58 N N/A 29.95 1014 10 16 N/A
4:51 am 04:51 Clear 59 15 46 7.8 62 62 S 3 6 29.97 1015 10 16 N/A
5:51 am 05:51 Clear 61 16.1 46 7.8 58 58 SSW 3 6 29.99 1016 10 16 N/A
6:51 am 06:51 Sunny 57 13.9 46 7.8 67 67 N N/A 30.02 1017 10 16 N/A
7:51 am 07:51 Sunny 64 17.8 46 7.8 52 52 N N/A 30.02 1017 10 16 N/A
8:51 am 08:51 Sunny 70 21.1 45 7.2 41 41 N N/A 30.02 1017 10 16 N/A
9:51 am 09:51 Sunny 78 25.6 44 6.7 30 30 N N/A 30.01 1016 10 16 N/A
10:51 am 10:51 Sunny 82 27.8 41 5 23 23 N N/A 30.00 1016 10 16 N/A
11:51 am 11:51 Sunny 87 30.6 37 2.8 17 17 VRB 5 7 29.98 1015 10 16 N/A
12:51 pm 12:51 Sunny 90 32.2 38 3.3 16 16 NW 6 9 29.93 1014 10 16 N/A
1:51 pm 13:51 Sunny 90 32.2 38 3.3 16 16 VRB 3 6 29.91 1013 10 16 N/A
2:51 pm 14:51 Sunny 92 33.3 34 1.1 13 13 VRB 3 6 29.88 1012 10 16 N/A
3:51 pm 15:51 Sunny 93 33.9 33 0.6 12 12 W 5 7 29.86 1011 10 16 N/A
4:51 pm 16:51 Sunny 91 32.8 31 -0.6 12 12 W 7 11 29.86 1011 10 16 N/A
5:51 pm 17:51 Clear 80 26.7 35 1.7 20 20 WNW 6 9 29.87 1012 10 16 N/A
6:51 pm 18:51 Clear 75 23.9 39 3.9 27 27 NNW 7 11 29.90 1012 10 16 N/A
7:51 pm 19:51 Clear 75 23.9 38 3.3 26 26 NNW 5 7 29.88 1012 10 16 N/A
8:51 pm 20:51 Clear 70 21.1 42 5.6 37 37 SE 3 6 29.90 1012 10 16 N/A
9:51 pm 21:51 Clear 69 20.6 42 5.6 38 38 E 5 7 29.89 1012 10 16 N/A
10:51 pm 22:51 Clear 67 19.4 43 6.1 42 42 S 6 9 29.88 1012 10 16 N/A
11:51 pm 23:51 Clear 64 17.8 42 5.6 45 45 NNE 7 11 29.88 1012 10 16 N/A

Powered by AerisWeather